DW0967 Weather Reports


time (UTC)temp
C
wind
direction
speed
KPH
gust
KPH
rain 1hr
cm
rain 24hr
cm
rain mn
cm
humidity
%
barometer
mb
20221128073705 7 179 8.0 14.5 0.00 0.00 0.00 31 1003.3
20221128071333 7 215 11.3 29.0 0.00 0.00 0.00 30 1003.7
20221128064205 6 229 6.4 14.5 0.00 0.00 0.00 34 1004.4
20221128061205 6 186 4.8 16.1 0.00 0.00 0.00 33 1004.4
20221128060704 6 285 11.3 29.0 0.00 0.00 0.00 33 1004.1
20221128060205 5 264 16.1 27.4 0.00 0.00 0.00 35 1004.1
20221128053205 5 237 1.6 11.3 0.00 0.00 0.00 34 1003.9
20221128051205 6 260 6.4 11.3 0.00 0.00 0.00 33 1004.0
20221128043705 7 323 25.7 41.8 0.00 0.00 0.00 31 1004.7
20221128041705 7 297 16.1 27.4 0.00 0.00 0.00 30 1004.7
20221128041206 7 309 20.9 32.2 0.00 0.00 0.00 30 1004.1
20221128034205 6 329 11.3 25.7 0.00 0.00 0.00 31 1004.0
20221128033705 6 319 22.5 32.2 0.00 0.00 0.00 31 1004.0
20221128031705 5 267 12.9 27.4 0.00 0.00 0.00 36 1004.0
20221128030205 5 255 8.0 16.1 0.00 0.00 0.00 39 1004.0
20221128024205 6 215 9.7 19.3 0.00 0.00 0.00 38 1004.0
20221128023705 6 162 8.0 19.3 0.00 0.00 0.00 36 1004.0
20221128023204 6 176 9.7 20.9 0.00 0.00 0.00 33 1004.9
20221128014705 6 243 8.0 14.5 0.00 0.00 0.00 25 1005.5
20221128013205 7 303 6.4 19.3 0.00 0.00 0.00 24 1006.4
20221128004205 5 206 3.2 11.3 0.00 0.00 0.00 35 1006.4
20221128001705 6 335 8.0 9.7 0.00 0.00 0.00 26 1006.4
20221128001205 6 308 4.8 9.7 0.00 0.00 0.00 28 1006.4
20221128000705 6 313 1.6 8.0 0.00 0.00 0.00 33 1006.5
20221127233704 6 198 1.6 4.8 0.00 0.00 0.00 41 1006.4
20221127231205 7 162 8.0 14.5 0.00 0.00 0.00 37 1006.0
20221127224705 8 161 9.7 16.1 0.00 0.00 0.00 35 1006.3
20221127223704 9 166 8.0 11.3 0.00 0.00 0.00 34 1006.3
20221127223205 10 186 6.4 20.9 0.00 0.00 0.00 31 1006.3
20221127220705 10 290 11.3 19.3 0.00 0.00 0.00 25 1007.3
20221127214205 8 180 4.8 9.7 0.00 0.00 0.00 41 1007.3
20221127211704 8 96 3.2 4.8 0.00 0.00 0.00 36 1007.3
20221127211205 8 96 4.8 9.7 0.00 0.00 0.00 34 1007.3
20221127210205 8 71 6.4 11.3 0.00 0.00 0.00 38 1007.8
20221127204704 9 59 8.0 14.5 0.00 0.00 0.00 38 1007.8
20221127204204 10 58 4.8 8.0 0.00 0.00 0.00 39 1007.8
20221127203706 9 81 4.8 8.0 0.00 0.00 0.00 38 1007.8
20221127201204 8 105 4.8 4.8 0.00 0.00 0.00 40 1008.6
20221127200704 8 148 4.8 9.7 0.00 0.00 0.00 41 1008.6
20221127191705 8 147 4.8 11.3 0.00 0.00 0.00 45 1008.6
20221127190705 8 159 11.3 19.3 0.00 0.00 0.00 46 1009.1
20221127184706 7 155 6.4 16.1 0.00 0.00 0.00 50 1009.1
20221127184209 7 161 8.0 11.3 0.00 0.00 0.00 51 1009.2
20221127183705 7 159 8.0 16.1 0.00 0.00 0.00 50 1009.2
20221127181705 6 146 4.8 12.9 0.00 0.00 0.00 55 1010.4
20221127180714 6 160 6.4 12.9 0.00 0.00 0.00 56 1010.4
20221127174705 6 145 6.4 14.5 0.00 0.00 0.00 59 1010.7
20221127173710 5 164 8.0 16.1 0.00 0.00 0.00 61 1010.7
20221127173210 5 159 9.7 19.3 0.00 0.00 0.00 62 1010.9
20221127171704 5 162 9.7 19.3 0.00 0.00 0.00 64 1010.9
20221127170205 5 169 9.7 19.3 0.00 0.00 0.00 66 1011.3
20221127164205 4 141 8.0 12.9 0.00 0.00 0.00 68 1011.9
20221127163204 3 171 8.0 14.5 0.00 0.00 0.00 69 1011.9
20221127154205 2 202 3.2 4.8 0.00 0.00 0.00 79 1011.8
20221127151704 1 154 4.8 8.0 0.00 0.00 0.00 85 1012.6
20221127150204 0 70 1.6 4.8 0.00 0.00 0.00 88 1012.6
20221127144705 0 55 1.6 3.2 0.00 0.00 0.00 89 1012.3
20221127143704 -1 41 1.6 3.2 0.00 0.00 0.00 89 1012.7
20221127140204 -1 41 1.6 3.2 0.00 0.00 0.00 88 1012.7
20221127134705 -1 41 0.0 1.6 0.00 0.00 0.00 87 1012.7
20221127133704 0 41 0.0 3.2 0.00 0.00 0.00 87 1013.0
20221127133205 0 41 1.6 3.2 0.00 0.00 0.00 87 1013.0
20221127131204 0 41 1.6 3.2 0.00 0.00 0.00 86 1012.7
20221127124704 0 41 1.6 3.2 0.00 0.00 0.00 85 1012.7
20221127123205 0 41 0.0 1.6 0.00 0.00 0.00 85 1012.7
20221127121704 0 41 0.0 0.0 0.00 0.00 0.00 85 1012.7
20221127114205 0 41 1.6 3.2 0.00 0.00 0.00 85 1013.0
20221127113205 1 41 0.0 1.6 0.00 0.00 0.00 84 1013.0
20221127111704 1 41 0.0 1.6 0.00 0.00 0.00 84 1013.0
20221127111204 1 41 0.0 3.2 0.00 0.00 0.00 84 1013.0
20221127110204 1 41 0.0 1.6 0.00 0.00 0.00 84 1013.0
20221127103704 1 41 1.6 3.2 0.00 0.00 0.00 83 1013.1
20221127103205 1 41 1.6 4.8 0.00 0.00 0.00 82 1013.1
20221127101705 1 41 3.2 4.8 0.00 0.00 0.00 82 1013.3
20221127101207 1 41 3.2 4.8 0.00 0.00 0.00 81 1013.3
20221127094704 1 36 3.2 4.8 0.00 0.00 0.00 81 1013.3
20221127094205 1 25 3.2 4.8 0.00 0.00 0.00 81 1013.3
20221127093707 1 25 3.2 4.8 0.00 0.00 0.00 81 1013.3
20221127093204 1 25 3.2 4.8 0.00 0.00 0.00 81 1013.1
20221127091704 1 5 3.2 4.8 0.00 0.00 0.00 82 1013.1
20221127083705 1 355 1.6 3.2 0.00 0.00 0.00 84 1013.3
20221127083204 1 355 1.6 3.2 0.00 0.00 0.00 84 1013.3
20221127081205 1 355 0.0 3.2 0.00 0.00 0.00 84 1013.6